• en France
  • Liste des pays
  • À 7 jours
  • Température de l'eau
  • Carte satellitaire
  • Carte météo
  • Widgets météo
  • user-avatar
    Se connecter

    Météo par heure à Korçё

    Ce jour, 17 Janvier, Mercredi

    Heure Température Précipitation Vent Pression Humidité
    00:00 +2°C° 0 mm 2 m/s 663 mmHg 94%
    01:00 +1°C° 0 mm 3 m/s 663 mmHg 95%
    02:00 +1°C° 0 mm 3 m/s 662 mmHg 94%
    03:00 +1°C° 0 mm 3 m/s 662 mmHg 94%
    04:00 +1°C° 0 mm 3 m/s 661 mmHg 94%
    05:00 +2°C° 0 mm 3 m/s 661 mmHg 94%
    06:00 +2°C° 0 mm 3 m/s 661 mmHg 94%
    07:00 +2°C° 0 mm 3 m/s 660 mmHg 94%
    08:00 +1°C° 0,1 mm 4 m/s 660 mmHg 93%
    09:00 +3°C° 0,1 mm 4 m/s 660 mmHg 92%
    10:00 +3°C° 0,1 mm 4 m/s 659 mmHg 91%
    11:00 +3°C° 0,3 mm 5 m/s 659 mmHg 90%
    12:00 +4°C° 0,3 mm 6 m/s 658 mmHg 89%
    13:00 +4°C° 0,3 mm 6 m/s 657 mmHg 87%
    14:00 +4°C° 1,1 mm 7 m/s 656 mmHg 88%
    15:00 +4°C° 1,1 mm 7 m/s 656 mmHg 88%
    16:00 +4°C° 1,1 mm 8 m/s 655 mmHg 89%
    17:00 +2°C° 1,3 mm 8 m/s 655 mmHg 89%
    18:00 +2°C° 1,3 mm 8 m/s 655 mmHg 89%
    19:00 +1°C° 1,3 mm 8 m/s 654 mmHg 88%
    20:00 +1°C° 1,2 mm 9 m/s 655 mmHg 85%
    21:00 0°C° 1,2 mm 9 m/s 655 mmHg 81%
    22:00 -1°C° 1,2 mm 9 m/s 656 mmHg 77%
    23:00 -1°C° 0,2 mm 8 m/s 656 mmHg 78%

    Demain, 18 Janvier, Jeudi

    Heure Température Précipitation Vent Pression Humidité
    00:00 -2°C° 0,2 mm 7 m/s 657 mmHg 79%
    01:00 -3°C° 0,2 mm 6 m/s 657 mmHg 80%
    02:00 -4°C° 0,1 mm 6 m/s 658 mmHg 80%
    03:00 -4°C° 0,1 mm 5 m/s 658 mmHg 80%
    04:00 -5°C° 0,1 mm 5 m/s 659 mmHg 80%
    05:00 -5°C° 0 mm 5 m/s 660 mmHg 78%
    06:00 -5°C° 0 mm 4 m/s 660 mmHg 76%
    07:00 -7°C° 0 mm 4 m/s 661 mmHg 74%
    08:00 -5°C° 0 mm 5 m/s 662 mmHg 65%
    09:00 -4°C° 0 mm 6 m/s 663 mmHg 56%
    10:00 -3°C° 0 mm 7 m/s 665 mmHg 47%
    11:00 -2°C° 0 mm 7 m/s 665 mmHg 46%
    12:00 -2°C° 0 mm 7 m/s 665 mmHg 45%
    13:00 -1°C° 0 mm 7 m/s 666 mmHg 45%
    14:00 -2°C° 0 mm 6 m/s 666 mmHg 49%
    15:00 -1°C° 0 mm 4 m/s 666 mmHg 53%
    16:00 -1°C° 0 mm 3 m/s 666 mmHg 58%
    17:00 -2°C° 0 mm 3 m/s 666 mmHg 60%
    18:00 -2°C° 0 mm 2 m/s 666 mmHg 61%
    19:00 -3°C° 0 mm 2 m/s 666 mmHg 63%
    20:00 -3°C° 0 mm 2 m/s 666 mmHg 63%
    21:00 -3°C° 0 mm 2 m/s 666 mmHg 62%
    22:00 -3°C° 0 mm 2 m/s 666 mmHg 62%
    23:00 -3°C° 0 mm 2 m/s 666 mmHg 63%

    Après-demain, 19 Janvier, Vendredi

    Heure Température Précipitation Vent Pression Humidité
    00:00 -3°C° 0 mm 2 m/s 666 mmHg 64%
    01:00 -3°C° 0 mm 2 m/s 666 mmHg 65%
    02:00 -3°C° 0 mm 2 m/s 666 mmHg 68%
    03:00 -4°C° 0 mm 3 m/s 665 mmHg 70%
    04:00 -4°C° 0 mm 3 m/s 665 mmHg 72%
    05:00 -4°C° 0 mm 3 m/s 665 mmHg 74%
    06:00 -4°C° 0 mm 3 m/s 665 mmHg 75%
    07:00 -2°C° 0 mm 3 m/s 665 mmHg 76%
    08:00 -1°C° 0 mm 3 m/s 665 mmHg 77%
    09:00 0°C° 0 mm 3 m/s 666 mmHg 77%
    10:00 +1°C° 0 mm 3 m/s 666 mmHg 77%
    11:00 +2°C° 0 mm 3 m/s 666 mmHg 78%
    12:00 +3°C° 0 mm 3 m/s 665 mmHg 78%
    13:00 +3°C° 0 mm 3 m/s 665 mmHg 79%
    14:00 +3°C° 0 mm 3 m/s 665 mmHg 82%
    15:00 +2°C° 0 mm 3 m/s 665 mmHg 85%
    16:00 +2°C° 0 mm 3 m/s 664 mmHg 89%
    17:00 +2°C° 0 mm 3 m/s 664 mmHg 90%
    18:00 +1°C° 0 mm 3 m/s 664 mmHg 91%
    19:00 +1°C° 0 mm 3 m/s 664 mmHg 93%
    20:00 +1°C° 0 mm 3 m/s 664 mmHg 93%
    21:00 +1°C° 0 mm 3 m/s 664 mmHg 94%
    22:00 +1°C° 0 mm 3 m/s 664 mmHg 94%
    23:00 +1°C° 0 mm 3 m/s 664 mmHg 94%

    20 Janvier, Samedi

    Heure Température Précipitation Vent Pression Humidité
    00:00 +1°C° 0 mm 3 m/s 663 mmHg 94%
    01:00 +1°C° 0 mm 3 m/s 663 mmHg 94%
    02:00 +1°C° 0,1 mm 3 m/s 663 mmHg 94%
    03:00 +1°C° 0,1 mm 3 m/s 663 mmHg 94%
    04:00 +1°C° 0,1 mm 3 m/s 662 mmHg 94%
    05:00 +1°C° 0,1 mm 3 m/s 662 mmHg 94%
    06:00 +2°C° 0,1 mm 3 m/s 662 mmHg 94%
    07:00 +2°C° 0,1 mm 3 m/s 662 mmHg 94%
    08:00 +2°C° 0,4 mm 3 m/s 662 mmHg 93%
    09:00 +3°C° 0,4 mm 4 m/s 662 mmHg 91%
    10:00 +4°C° 0,4 mm 4 m/s 661 mmHg 90%
    11:00 +4°C° 0,9 mm 4 m/s 661 mmHg 89%
    12:00 +4°C° 0,9 mm 4 m/s 660 mmHg 89%
    13:00 +4°C° 0,9 mm 4 m/s 660 mmHg 89%
    14:00 +4°C° 1,2 mm 4 m/s 659 mmHg 89%
    15:00 +4°C° 1,2 mm 4 m/s 659 mmHg 90%
    16:00 +3°C° 1,2 mm 4 m/s 659 mmHg 90%
    17:00 +3°C° 1 mm 4 m/s 659 mmHg 90%
    18:00 +3°C° 1 mm 4 m/s 659 mmHg 90%
    19:00 +1°C° 1 mm 5 m/s 659 mmHg 90%
    20:00 +1°C° 0,4 mm 4 m/s 659 mmHg 89%
    21:00 0°C° 0,4 mm 4 m/s 659 mmHg 89%
    22:00 0°C° 0,4 mm 4 m/s 659 mmHg 88%
    23:00 0°C° 0,2 mm 3 m/s 659 mmHg 89%

    21 Janvier, Dimanche

    Heure Température Précipitation Vent Pression Humidité
    00:00 0°C° 0,2 mm 3 m/s 659 mmHg 89%
    01:00 -1°C° 0,2 mm 3 m/s 659 mmHg 90%
    02:00 -1°C° 0,1 mm 2 m/s 659 mmHg 90%
    03:00 -1°C° 0,1 mm 2 m/s 659 mmHg 90%
    04:00 +1°C° 0,1 mm 1 m/s 659 mmHg 90%
    05:00 +1°C° 0 mm 1 m/s 659 mmHg 89%
    06:00 0°C° 0 mm 1 m/s 659 mmHg 89%
    07:00 0°C° 0 mm 1 m/s 659 mmHg 89%
    08:00 +1°C° 0 mm 1 m/s 659 mmHg 84%
    09:00 +1°C° 0 mm 2 m/s 659 mmHg 79%
    10:00 +2°C° 0 mm 2 m/s 659 mmHg 74%
    11:00 +2°C° 0 mm 2 m/s 659 mmHg 70%
    12:00 +3°C° 0 mm 2 m/s 659 mmHg 66%
    13:00 +3°C° 0 mm 2 m/s 658 mmHg 63%
    14:00 +2°C° 0,2 mm 2 m/s 658 mmHg 68%
    15:00 +1°C° 0,2 mm 3 m/s 658 mmHg 73%
    16:00 0°C° 0,2 mm 3 m/s 658 mmHg 78%
    17:00 -1°C° 0,3 mm 3 m/s 658 mmHg 79%
    18:00 -2°C° 0,3 mm 3 m/s 658 mmHg 80%
    19:00 -2°C° 0,3 mm 3 m/s 659 mmHg 81%
    20:00 -4°C° 0,1 mm 3 m/s 659 mmHg 80%
    21:00 -4°C° 0,1 mm 3 m/s 659 mmHg 79%
    22:00 -5°C° 0,1 mm 3 m/s 660 mmHg 79%
    23:00 -5°C° 0,2 mm 3 m/s 660 mmHg 79%

    22 Janvier, Lundi

    Heure Température Précipitation Vent Pression Humidité
    00:00 -5°C° 0,2 mm 3 m/s 660 mmHg 79%
    01:00 -6°C° 0,2 mm 3 m/s 660 mmHg 80%
    02:00 -6°C° 0,1 mm 3 m/s 660 mmHg 79%
    03:00 -6°C° 0,1 mm 3 m/s 660 mmHg 78%
    04:00 -7°C° 0,1 mm 3 m/s 661 mmHg 77%
    05:00 -7°C° 0 mm 3 m/s 661 mmHg 77%
    06:00 -7°C° 0 mm 3 m/s 662 mmHg 77%
    07:00 -6°C° 0 mm 2 m/s 662 mmHg 77%
    08:00 -5°C° 0 mm 2 m/s 663 mmHg 70%
    09:00 -5°C° 0 mm 3 m/s 664 mmHg 63%
    10:00 -4°C° 0 mm 3 m/s 664 mmHg 56%
    11:00 -2°C° 0 mm 3 m/s 664 mmHg 53%
    12:00 -2°C° 0 mm 2 m/s 665 mmHg 50%
    13:00 -1°C° 0 mm 2 m/s 665 mmHg 48%
    14:00 -1°C° 0 mm 2 m/s 665 mmHg 51%
    15:00 -2°C° 0 mm 2 m/s 665 mmHg 54%
    16:00 -2°C° 0 mm 2 m/s 665 mmHg 57%
    17:00 -1°C° 0 mm 1 m/s 665 mmHg 59%
    18:00 -2°C° 0 mm 1 m/s 665 mmHg 61%
    19:00 -3°C° 0 mm 1 m/s 665 mmHg 63%
    20:00 -3°C° 0 mm 1 m/s 665 mmHg 63%
    21:00 -3°C° 0 mm 1 m/s 665 mmHg 62%
    22:00 -3°C° 0 mm 1 m/s 665 mmHg 62%
    23:00 -3°C° 0 mm 1 m/s 665 mmHg 62%
    Voir plus